User: anonymous
Location: Ostrava
(49.8330°N, 18.2830°E)
Time: 14:11:25
(UTC+02:00)
Language:

Cosmos 2219 Rocket - Orbit

View from above orbital plane
View from above orbital plane
View from above satellite
View from above satellite

Ground track
Ground track

The orbit data is extracted from the following two-line orbital elements,

1 22220U 92076B   14264.94180896 -.00000160  00000-0 -56212-4 0  4134
2 22220 071.0030 002.4661 0013647 345.5902 120.8263 14.16321944129288
Epoch (UTC): 21 September 2014 22:36:12
Eccentricity: 0.0013647
inclination: 71.0030°
perigee height: 828 km
apogee height: 847 km
right ascension of ascending node: 2.4661°
argument of perigee: 345.5902°
revolutions per day: 14.16321944
mean anomaly at epoch: 120.8263°
orbit number at epoch: 12928

The dashed part of the orbit path shows where the satellite is in the earth's shadow,  

DLR